This is the latest recevied weather packets stored in our database for station/object JS2WAD-13. If no packets are shown the sender has not sent any weather packets the latest 10 day(s).
| Time | Temp. | Humidity | Pressure | Rain* | Wind** | Luminosity | Snow |
|---|---|---|---|---|---|---|---|
| 1778051180 | 18.89° C | 79% | 909.5 hPa | 0 mm | - | 65 W/m² | - |
| 1778050880 | 18.89° C | 78% | 909.6 hPa | 0 mm | - | 62 W/m² | - |
| 1778050580 | 18.89° C | 78% | 909.8 hPa | 0 mm | - | 53 W/m² | - |
| 1778050280 | 18.89° C | 78% | 909.7 hPa | 0 mm | - | 69 W/m² | - |
| 1778049980 | 18.89° C | 78% | 909.8 hPa | 0 mm | - | 69 W/m² | - |
| 1778049680 | 18.89° C | 78% | 909.7 hPa | 0 mm | - | 76 W/m² | - |
| 1778049380 | 18.89° C | 78% | 909.8 hPa | 0 mm | - | 81 W/m² | - |
| 1778049080 | 18.89° C | 77% | 909.7 hPa | 0 mm | - | 113 W/m² | - |
| 1778048780 | 18.89° C | 78% | 909.8 hPa | 0 mm | - | 132 W/m² | - |
| 1778048480 | 18.89° C | 77% | 909.8 hPa | 0 mm | - | 134 W/m² | - |
| 1778048180 | 18.89° C | 77% | 909.7 hPa | 0 mm | - | 95 W/m² | - |
| 1778047880 | 18.89° C | 76% | 909.8 hPa | 0 mm | - | 95 W/m² | - |
| 1778047580 | 18.89° C | 77% | 909.8 hPa | 0 mm | - | 107 W/m² | - |
| 1778047280 | 18.89° C | 77% | 910 hPa | 0 mm | - | 155 W/m² | - |
| 1778046980 | 18.33° C | 78% | 910 hPa | 0 mm | - | 139 W/m² | - |
| 1778046680 | 18.33° C | 77% | 910.1 hPa | 0 mm | - | 107 W/m² | - |
| 1778046381 | 18.33° C | 77% | 910 hPa | 0 mm | - | 111 W/m² | - |
| 1778046080 | 18.33° C | 77% | 910.1 hPa | 0 mm | - | 70 W/m² | - |
| 1778045780 | 18.33° C | 77% | 910.2 hPa | 0 mm | - | 42 W/m² | - |
| 1778045480 | 18.33° C | 78% | 910.1 hPa | 0 mm | - | 44 W/m² | - |
| 1778045180 | 18.33° C | 79% | 910.3 hPa | 0 mm | - | 35 W/m² | - |
| 1778044880 | 18.33° C | 79% | 910.2 hPa | 0 mm | - | 35 W/m² | - |
| 1778044580 | 18.33° C | 80% | 910.5 hPa | 0 mm | - | 33 W/m² | - |
| 1778044280 | 18.33° C | 78% | 910.3 hPa | 0 mm | - | 33 W/m² | - |
| 1778043980 | 18.33° C | 79% | 910.2 hPa | 0 mm | - | 40 W/m² | - |
* Rain latest hour (hover to see other rain measurements)
** Current wind speed in m/s (hover to see current wind gust speed)